Imperial, NE

8:42 AM MDT on April 24, 2017 (GMT -0600)
Imperial Municipal

Weather History for KIML - March, 2012

Change the Weather History Date:

Thursday, March 8, 2012

  Actual Average Record
Temperature  
Mean Temperature 36 °F 38 °F  
Max Temperature 51 °F 52 °F 76 °F (1977)
Min Temperature 20 °F 24 °F -5 °F (1948)
Degree Days  
Heating Degree Days 29 27  
Month to date heating degree days 202 228  
Cooling Degree Days 0 0  
Month to date cooling degree days 0 0  
Year to date cooling degree days 0 0  
Moisture  
Dew Point 12 °F    
Average Humidity 45    
Maximum Humidity 71    
Minimum Humidity 18    
Precipitation  
Precipitation 0.00 in 0.03 in 0.87 in (2000)
Sea Level Pressure  
Sea Level Pressure 30.48 in    
Wind  
Wind Speed 10 mph (NW)    
Max Wind Speed 21 mph    
Max Gust Speed 28 mph    
Visibility 10 miles    
Events      
T = Trace of Precipitation, MM = Missing Value Source: NWS Daily Summary

Daily Weather History Graph

Daily Weather History Graph

Search for Another Location

Airport or City:

Trip Planner

Search our weather history database for the weather conditions in past years. The results will help you decide how hot, cold, wet, or windy it might be!

Date:

Astronomy

Mar. 08, 2012 Rise Set
Actual Time 6:08 AM MST 5:46 PM MST
Civil Twilight 5:41 AM MST 6:13 PM MST
Nautical Twilight 5:09 AM MST 6:45 PM MST
Astronomical Twilight 4:37 AM MST 7:17 PM MST
Moon 6:36 PM MST (3/8) 5:53 AM MST (3/8)
Length of Visible Light 12h 32m
Length of Day
11h 37m
Full, 100% of the Moon is Illuminated
Mar 8
Full
Mar 14
Last Quarter
Mar 22
New
Mar 30
First Quarter
Apr 6
Full

Hourly Weather History & Observations

Time (MST) Temp. Windchill Dew Point Humidity Pressure Visibility Wind Dir Wind Speed Gust Speed Precip Events Conditions
12:53 AM 27.0 °F 16.1 °F 16.0 °F 63% 30.32 in 10.0 mi NW 12.7 mph - N/A   Clear
1:53 AM 25.0 °F 14.2 °F 15.1 °F 66% 30.34 in 10.0 mi NW 11.5 mph - N/A   Clear
2:53 AM 26.1 °F 15.0 °F 15.1 °F 63% 30.36 in 10.0 mi NNW 12.7 mph - N/A   Clear
3:53 AM 24.1 °F 13.1 °F 14.0 °F 65% 30.42 in 10.0 mi NW 11.5 mph - N/A   Clear
4:53 AM 21.9 °F 12.5 °F 14.0 °F 72% 30.45 in 10.0 mi NW 8.1 mph - N/A   Clear
5:53 AM 23.0 °F 10.6 °F 14.0 °F 68% 30.46 in 10.0 mi NNW 13.8 mph - N/A   Clear
6:53 AM 27.0 °F 16.7 °F 15.1 °F 61% 30.48 in 10.0 mi NW 11.5 mph - N/A   Clear
7:53 AM 32.0 °F 22.1 °F 16.0 °F 52% 30.49 in 10.0 mi NW 13.8 mph - N/A   Clear
8:53 AM 37.9 °F 28.9 °F 16.0 °F 41% 30.50 in 10.0 mi NW 16.1 mph - N/A   Clear
9:53 AM 42.1 °F 33.9 °F 14.0 °F 32% 30.50 in 10.0 mi NNW 17.3 mph - N/A   Clear
10:53 AM 45.0 °F 38.2 °F 12.9 °F 27% 30.51 in 10.0 mi NNW 15.0 mph 20.7 mph N/A   Clear
11:53 AM 46.9 °F - 10.0 °F 22% 30.49 in 10.0 mi North 16.1 mph 27.6 mph N/A   Clear
12:53 PM 46.9 °F - 10.9 °F 23% 30.48 in 10.0 mi NNE 9.2 mph - N/A   Clear
1:53 PM 48.9 °F - 10.9 °F 22% 30.48 in 10.0 mi North 15.0 mph 20.7 mph N/A   Clear
2:53 PM 50.0 °F - 10.0 °F 20% 30.47 in 10.0 mi NNW 10.4 mph - N/A   Clear
3:53 PM 50.0 °F - 9.0 °F 19% 30.47 in 10.0 mi NNW 8.1 mph - N/A   Clear
4:53 PM 48.9 °F - 9.0 °F 20% 30.48 in 10.0 mi NW 6.9 mph - N/A   Clear
5:53 PM 45.0 °F 43.5 °F 9.0 °F 23% 30.51 in 10.0 mi West 3.5 mph - N/A   Clear
6:53 PM 37.9 °F 34.4 °F 10.9 °F 33% 30.52 in 10.0 mi West 4.6 mph - N/A   Clear
7:53 PM 34.0 °F 28.8 °F 10.9 °F 38% 30.53 in 10.0 mi WSW 5.8 mph - N/A   Clear
8:53 PM 32.0 °F 27.5 °F 10.9 °F 42% 30.54 in 10.0 mi West 4.6 mph - N/A   Clear
9:53 PM 27.0 °F 18.7 °F 10.9 °F 51% 30.55 in 10.0 mi WSW 8.1 mph - N/A   Clear
10:53 PM 26.1 °F 16.8 °F 10.9 °F 53% 30.55 in 10.0 mi WSW 9.2 mph - N/A   Clear
11:53 PM 26.1 °F 19.4 °F 12.0 °F 55% 30.53 in 10.0 mi West 5.8 mph - N/A   Clear